Temperature
14 14 14 13 13 13 13 13 13 13 13 12 12 12 12 12 12 12 12 12 12 12 12 12 12 12 12 12 11 11 11 11 11 11 11 10 10 10 10 10 10 11 11
14 13 13 13 13 13 13 13 12 12 12 12 12 12 12 12 12 12 12 12 12 12 12 12 12 12 12 11 11 11 11 11 11 11 11 10 10 10 10 10 10 10 10
13 13 13 13 13 13 13 12 12 12 12 12 12 12 12 12 12 12 12 12 12 12 12 12 12 12 11 11 11 11 11 11 11 11 10 10 10 10 10 10 10 10 10
13 13 13 12 12 12 12 12 12 12 12 12 12 12 12 12 11 11 11 11 11 11 12 12 11 11 11 11 11 11 11 11 11 10 10 10 10 10 10 10 10 10 10
12 12 12 12 12 12 12 12 12 12 11 11 11 11 11 11 11 11 11 11 11 11 11 11 11 11 11 11 11 11 11 11 10 10 10 10 10 10 10 9 9 10 10
12 12 12 12 12 12 12 11 11 11 11 11 11 11 11 11 11 11 11 11 11 11 11 11 11 11 11 11 11 10 10 10 10 10 10 10 10 9 9 9 9 9 9
12 11 11 11 11 11 11 11 11 11 11 11 11 10 10 10 10 10 10 10 10 11 11 11 11 11 11 11 11 10 10 10 10 10 10 10 10 9 9 9 9 9 9
11 11 11 11 11 11 11 11 11 11 10 10 10 10 10 10 10 10 10 10 10 10 10 10 10 10 10 10 10 10 10 10 10 10 10 9 9 9 9 9 9 9 9
11 11 11 10 10 10 10 10 10 10 10 10 10 10 10 10 10 10 10 10 10 10 10 10 10 10 10 10 10 10 10 10 9 9 9 9 9 9 9 9 9 9 9
11 10 10 10 10 10 10 10 10 10 10 10 10 10 10 10 9 9 9 9 9 10 10 10 10 10 10 9 9 9 9 9 9 9 9 9 9 9 9 9 8 8 8
10 10 10 10 10 9 9 9 9 9 9 9 9 9 9 9 9 9 9 9 9 9 9 9 9 9 9 9 9 9 9 9 9 9 9 9 9 9 8 8 8 8 8
10 10 9 9 9 9 9 9 9 9 9 9 9 9 9 9 9 9 9 9 9 9 9 9 9 9 9 9 9 9 9 9 8 8 8 8 8 8 8 8 8 8 8
9 9 9 9 9 9 9 9 9 8 8 8 8 8 8 8 8 8 8 8 8 8 8 8 9 9 9 9 9 8 8 8 8 8 8 8 8 8 8 8 8 8 8
9 9 9 9 9 8 8 8 8 8 8 8 8 8 8 8 8 8 8 8 8 8 8 8 8 8 8 8 8 8 8 8 8 8 8 8 7 8 8 7 7 7 7
8 8 8 8 8 8 8 8 8 8 8 8 8 8 8 8 8 7 7 7 7 7 7 7 7 7 8 8 8 8 7 7 7 7 7 7 7 7 7 7 7 7 7
8 8 8 8 8 7 7 7 7 7 7 7 7 7 7 7 7 7 7 7 7 7 7 7 7 7 7 7 7 7 7 7 7 7 7 7 7 7 7 7 7 7 7
8 8 7 7 7 7 7 7 7 7 7 7 7 6 7 7 7 7 7 6 6 6 6 6 6 6 6 6 6 6 6 6 6 6 6 6 6 6 6 6 6 6 6
7 7 7 7 7 7 7 7 7 6 6 6 6 6 6 6 6 6 6 6 6 6 6 6 6 6 6 6 6 6 6 6 6 5 5 5 5 5 6 6 6 6 6
6 6 6 6 6 6 6 6 6 6 6 6 6 6 6 6 6 5 5 5 5 5 5 5 5 5 5 5 5 5 5 5 5 5 5 5 5 5 5 5 5 5 5
6 6 5 5 5 5 5 6 5 5 5 5 5 5 5 5 5 5 5 5 5 5 5 5 5 5 5 5 5 5 5 5 5 5 5 4 4 4 4 5 5 4 5
5 5 5 5 5 5 5 5 5 5 5 4 5 5 4 4 4 4 4 4 4 4 4 4 5 5 5 5 4 4 4 4 4 4 4 4 4 4 4 4 4 4 4
5 4 4 4 4 4 4 4 4 4 4 4 4 4 4 4 4 4 4 4 4 4 4 4 4 4 4 4 4 4 4 4 4 4 4 4 4 4 4 4 4 4 4
4 4 4 4 3 3 3 3 3 3 3 3 3 3 3 3 3 3 3 3 4 4 4 4 4 4 4 4 4 4 3 3 3 3 3 3 3 3 3 3 3 3 3
4 3 3 3 3 3 3 3 3 3 3 3 3 3 3 3 3 3 3 3 3 3 3 3 3 3 3 3 3 3 3 3 3 3 3 3 3 3 3 3 3 3 3
3 3 3 3 3 2 2 2 2 2 2 2 2 2 2 2 2 2 2 2 2 3 3 3 3 3 3 3 3 3 3 3 3 3 3 2 2 2 2 2 2 2 2
3 3 2 2 2 2 2 2 2 2 2 2 1 2 2 1 1 2 2 2 2 2 2 2 2 2 2 2 2 2 2 2 2 2 2 2 2 2 2 2 2 2 2
Wind_Speed
3 3 3 2 3 3 3 2 2 1 1 1 1 1 1 1 1 2 2 3 3 2 2 2 2 2 2 1 1 2 2 2 2 2 1 1 0 1 1 2 2 1 0
3 3 3 2 2 2 2 2 2 2 1 1 1 1 0 0 1 1 2 3 3 3 3 3 2 2 2 2 2 1 2 2 3 2 1 1 1 1 0 0 1 1 1
2 3 3 2 2 3 3 2 2 2 1 1 1 1 1 1 1 2 2 3 3 4 4 4 3 3 2 2 2 2 1 1 2 3 2 1 1 0 1 1 1 1 1
2 2 3 2 2 3 2 2 2 2 2 1 1 1 1 1 1 2 1 1 3 3 3 4 4 5 5 4 3 3 3 2 2 2 1 1 1 1 0 1 1 2 2
3 2 2 3 2 2 2 2 2 2 2 1 1 0 1 1 1 2 2 2 3 3 2 2 3 4 5 4 4 4 4 3 2 2 2 1 1 1 1 1 1 2 2
3 3 2 2 2 2 2 2 2 2 1 1 1 1 0 1 2 2 1 2 3 3 3 2 2 3 3 4 4 5 5 5 4 3 2 3 4 3 2 2 1 0 2
3 2 1 2 2 2 2 2 2 2 2 1 2 1 1 2 2 2 1 2 2 3 4 3 2 2 2 2 3 3 3 4 6 5 5 5 5 5 4 3 3 2 3
2 2 2 2 2 2 2 2 3 2 2 2 3 2 2 2 2 2 2 2 2 3 3 4 4 3 3 3 3 3 3 3 5 4 5 6 5 5 5 4 4 2 1
3 3 3 3 2 2 3 3 3 3 2 2 3 3 3 3 3 2 1 1 2 3 3 3 4 4 4 4 4 3 3 3 4 5 5 5 5 6 4 3 2 1 2
3 4 3 3 3 4 4 4 3 3 3 3 3 3 4 4 4 3 1 1 2 3 3 3 4 4 4 5 5 5 4 4 3 3 3 3 4 4 6 5 5 3 1
3 3 3 3 3 4 3 3 2 2 2 3 3 3 3 4 4 4 3 2 3 3 3 3 4 5 4 4 4 5 6 4 3 2 2 2 1 2 3 5 5 5 4
1 2 2 2 3 2 2 2 2 2 2 3 3 3 3 3 4 4 4 4 2 2 4 4 4 5 4 4 4 4 3 2 2 2 1 2 2 3 3 4 5 5 5
1 1 2 2 2 1 2 2 1 2 2 3 2 3 3 3 3 5 5 5 4 3 3 4 4 4 3 3 3 3 2 2 2 2 3 4 4 4 3 2 2 3 3
2 2 2 1 1 1 1 2 2 3 3 3 3 4 3 3 3 3 2 3 4 3 3 3 3 2 2 2 2 2 2 3 3 3 4 3 2 2 2 2 2 2 1
2 2 2 2 2 2 2 2 3 4 4 4 4 4 4 4 5 4 2 3 3 3 1 1 1 1 1 1 2 2 2 2 2 2 2 2 2 2 2 2 2 2 2
2 2 2 2 2 2 2 3 4 3 5 5 5 5 5 6 5 4 5 5 4 3 1 1 2 3 3 3 3 3 2 3 3 3 3 3 3 3 3 2 2 3 4
3 3 2 2 2 2 2 2 3 4 4 5 5 5 6 5 5 5 5 4 4 3 2 3 3 4 4 3 3 3 3 3 3 3 3 3 3 3 3 3 3 3 3
1 2 2 2 2 3 3 3 2 3 3 4 4 6 6 6 5 5 4 2 2 3 3 4 4 4 4 3 3 3 3 2 2 3 3 3 3 3 3 3 3 4 4
1 1 2 2 2 2 2 2 2 3 3 3 3 4 5 5 5 4 3 3 4 4 4 4 4 4 4 4 4 4 3 3 3 3 3 3 3 3 4 4 4 5 4
1 3 2 1 1 1 1 1 2 2 2 3 3 4 2 2 2 2 3 3 4 4 5 5 4 4 4 4 4 4 3 4 3 4 4 4 3 4 4 5 4 4 5
1 2 4 2 1 1 1 2 2 2 2 3 3 4 3 2 3 4 4 4 4 5 5 5 4 4 5 4 4 4 5 4 4 4 4 4 4 4 4 4 5 5 4
1 1 1 1 2 1 2 2 2 2 3 3 3 3 4 3 3 3 4 4 4 4 5 4 4 4 4 4 4 5 5 5 5 4 4 4 4 4 4 4 4 4 4
0 1 1 1 1 2 2 2 2 2 3 3 3 3 3 3 4 4 5 4 4 4 4 4 4 4 4 4 4 5 5 5 5 5 4 4 4 4 4 4 5 4 4
0 1 1 2 2 2 2 2 2 3 3 3 3 3 4 4 4 4 4 4 4 4 3 3 4 5 5 4 4 5 5 6 6 5 5 5 5 4 4 4 4 5 5
1 1 1 2 2 2 2 3 3 3 3 3 3 4 4 4 4 4 4 4 4 4 4 4 4 4 5 5 4 5 6 7 6 5 4 4 4 4 4 4 4 4 4
1 1 2 2 2 2 3 3 3 3 3 4 4 4 4 4 4 4 4 4 4 4 4 4 4 5 5 5 5 6 6 5 5 5 4 3 3 3 4 3 4 4 4
Wind_Direction
181 180 173 188 185 180 186 199 200 202 188 174 188 157 154 199 200 175 192 177 174 180 175 159 173 158 145 143 150 151 149 144 179 251 253 279 12 7 33 29 10 6 302
182 172 173 179 178 180 191 197 190 182 191 190 174 143 172 221 188 179 215 202 191 191 195 173 186 166 154 159 152 161 178 173 168 193 235 259 267 249 198 331 357 4 312
160 159 163 168 175 191 198 194 180 165 164 157 128 138 192 223 212 213 213 210 200 201 197 186 190 169 181 189 172 172 184 169 158 170 211 233 265 304 10 337 342 352 332
159 159 174 186 188 191 186 169 163 158 161 173 171 188 216 229 221 209 209 214 198 203 199 193 192 188 192 192 185 182 168 146 142 155 185 219 239 275 110 284 319 323 313
156 164 191 203 191 170 172 170 162 159 168 165 154 216 309 268 256 237 210 205 200 204 212 209 207 201 198 194 187 180 164 158 159 165 189 216 226 215 222 220 253 296 306
161 179 191 185 178 183 190 182 169 184 187 164 178 184 291 290 292 261 201 203 205 199 214 232 232 212 207 199 188 174 168 171 179 183 208 217 228 220 210 208 192 210 275
167 176 188 185 194 205 204 186 192 205 197 203 221 212 225 254 301 295 229 193 207 211 212 213 220 228 198 188 192 187 196 199 191 189 202 216 214 212 198 203 209 212 235
176 193 207 202 215 220 197 207 220 220 208 216 224 218 222 250 281 287 248 189 213 231 221 207 206 225 209 189 186 194 221 231 226 213 211 219 220 210 201 201 206 217 260
192 211 218 212 216 219 214 222 223 218 221 222 221 214 224 258 273 279 261 180 232 251 247 232 217 211 216 192 180 203 236 261 257 246 243 242 245 231 199 147 148 156 254
218 224 220 214 216 222 223 224 224 220 229 232 235 229 229 245 261 262 247 199 236 258 261 256 243 226 221 200 192 197 221 243 250 266 267 261 246 232 208 190 188 187 202
228 222 212 215 222 223 218 220 222 225 237 245 248 254 246 250 259 253 239 219 226 248 255 253 248 245 233 217 208 203 221 226 215 218 232 249 253 240 221 214 201 192 195
215 221 228 227 232 237 215 222 214 201 222 245 255 272 271 265 263 258 245 241 235 223 250 246 246 247 239 231 223 233 234 205 183 198 211 231 235 244 244 234 228 219 217
189 228 248 246 245 237 215 221 227 210 218 241 244 256 268 269 273 269 258 253 249 240 257 259 266 250 230 231 251 252 218 194 193 213 225 234 234 235 235 243 252 244 255
205 230 235 231 263 266 238 222 220 221 225 236 239 250 264 269 264 264 260 261 255 257 275 292 293 273 230 242 260 255 228 213 211 223 236 241 243 238 229 221 224 227 255
217 228 236 231 231 254 260 242 235 233 224 226 233 234 236 251 255 252 241 247 239 237 239 331 326 296 262 272 260 254 252 253 251 239 235 253 253 246 248 233 207 199 217
226 233 227 226 238 245 269 305 296 271 269 259 251 248 255 257 261 247 248 259 259 226 186 230 243 238 236 241 251 260 254 245 248 247 240 235 242 245 251 245 216 211 231
220 229 227 228 234 244 245 250 295 315 307 287 277 270 262 260 256 248 247 253 248 208 210 232 238 241 242 237 235 241 250 252 239 233 240 245 246 247 246 246 235 230 240
253 265 264 240 236 239 243 246 248 265 291 299 292 277 268 265 262 257 250 235 249 222 227 238 241 243 244 242 241 243 248 255 245 240 242 247 248 247 246 247 243 241 245
317 283 272 269 263 254 256 259 264 269 274 285 299 301 287 278 278 273 234 217 230 235 236 241 242 244 242 240 241 237 232 234 239 242 245 247 247 248 253 251 247 250 247
334 328 330 305 297 303 296 286 284 283 284 285 287 290 305 317 290 277 248 237 234 238 237 240 244 245 241 238 235 231 232 236 236 239 245 245 243 240 246 252 251 249 247
333 332 340 334 304 292 288 280 275 275 279 281 283 291 294 266 262 259 253 247 245 244 243 242 243 245 241 236 234 231 229 235 236 235 238 240 239 241 243 244 247 249 253
306 306 303 303 301 296 291 281 282 284 287 290 299 303 300 284 272 269 264 263 258 252 242 239 241 241 237 236 236 235 233 234 236 235 237 237 236 241 244 245 247 247 251
327 310 309 307 303 312 313 300 292 289 289 290 295 302 297 284 276 271 268 268 266 261 251 239 241 247 242 237 233 230 233 237 239 233 232 236 236 235 236 243 247 251 252
299 284 287 294 299 288 283 284 286 288 286 285 286 285 286 284 279 279 277 276 273 264 256 248 245 247 243 241 247 248 248 252 248 242 232 234 236 237 235 240 247 251 252
253 263 273 280 285 278 277 278 279 278 279 280 280 282 284 286 287 288 288 283 278 270 265 257 255 256 254 250 253 259 257 254 254 250 241 235 238 239 238 242 246 250 253
273 270 277 281 280 274 271 277 281 281 278 281 281 281 280 282 287 291 292 286 279 273 270 266 265 264 266 262 259 259 261 261 259 253 250 249 242 245 242 244 246 247 248
Height
1523 1524 1525 1525 1526 1526 1527 1527 1527 1527 1527 1526 1526 1525 1525 1525 1525 1526 1526 1527 1527 1527 1528 1528 1528 1528 1528 1528 1528 1528 1528 1528 1527 1527 1527 1527 1526 1526 1525 1525 1524 1523 1523
1521 1522 1522 1523 1524 1524 1524 1525 1525 1525 1525 1524 1524 1523 1523 1523 1523 1523 1524 1524 1524 1525 1526 1526 1526 1526 1526 1526 1526 1526 1526 1526 1526 1525 1525 1525 1525 1525 1524 1523 1523 1522 1522
1518 1519 1520 1520 1521 1521 1522 1522 1523 1523 1522 1522 1522 1521 1521 1521 1521 1521 1521 1522 1522 1523 1523 1524 1524 1524 1524 1524 1524 1524 1524 1524 1524 1524 1523 1523 1523 1523 1522 1522 1521 1521 1521
1516 1516 1517 1517 1518 1519 1520 1520 1520 1520 1520 1520 1519 1519 1519 1518 1518 1519 1519 1519 1520 1520 1521 1521 1521 1522 1522 1522 1522 1522 1522 1522 1522 1522 1521 1521 1521 1521 1520 1520 1519 1519 1519
1513 1514 1514 1515 1516 1517 1517 1517 1518 1517 1517 1517 1517 1516 1516 1516 1516 1516 1516 1516 1517 1517 1518 1518 1518 1519 1519 1519 1519 1519 1520 1519 1519 1519 1519 1519 1519 1518 1518 1518 1517 1517 1517
1510 1511 1512 1513 1513 1514 1514 1515 1515 1515 1515 1515 1514 1514 1514 1513 1513 1514 1514 1513 1514 1514 1514 1515 1515 1516 1516 1516 1517 1517 1517 1517 1516 1516 1516 1516 1516 1516 1516 1516 1515 1515 1514
1508 1509 1509 1510 1510 1510 1511 1511 1512 1512 1512 1512 1512 1511 1511 1511 1511 1511 1511 1510 1510 1510 1511 1512 1512 1512 1513 1513 1513 1514 1514 1514 1514 1514 1513 1513 1513 1514 1514 1514 1513 1513 1513
1505 1506 1507 1507 1507 1507 1508 1508 1508 1509 1509 1509 1508 1508 1508 1508 1508 1508 1507 1507 1507 1507 1508 1508 1508 1509 1509 1509 1510 1510 1510 1510 1511 1511 1511 1511 1511 1511 1511 1511 1511 1511 1511
1503 1503 1504 1504 1504 1505 1505 1505 1505 1506 1506 1506 1506 1505 1505 1505 1505 1505 1505 1504 1504 1504 1504 1504 1505 1505 1505 1506 1506 1506 1506 1506 1507 1507 1507 1507 1507 1508 1508 1508 1508 1508 1507
1500 1501 1501 1502 1502 1502 1502 1502 1503 1503 1503 1503 1503 1503 1502 1502 1502 1502 1502 1501 1500 1500 1500 1500 1501 1501 1501 1501 1502 1502 1502 1502 1503 1503 1503 1504 1504 1504 1504 1504 1504 1504 1504
1498 1499 1499 1499 1499 1499 1499 1500 1500 1500 1500 1500 1500 1499 1499 1499 1499 1498 1498 1497 1497 1496 1496 1496 1497 1497 1497 1498 1498 1498 1498 1499 1499 1499 1499 1499 1500 1500 1500 1501 1501 1501 1501
1496 1496 1496 1496 1497 1497 1496 1497 1497 1497 1497 1496 1496 1495 1495 1495 1495 1495 1494 1494 1493 1493 1492 1493 1493 1493 1494 1494 1494 1494 1495 1495 1495 1495 1495 1495 1495 1496 1496 1497 1497 1498 1498
1494 1494 1493 1493 1494 1494 1493 1493 1493 1493 1493 1492 1492 1491 1491 1491 1491 1491 1490 1490 1490 1489 1489 1489 1489 1489 1490 1490 1490 1491 1491 1491 1491 1491 1490 1491 1491 1492 1492 1493 1493 1493 1494
1491 1491 1491 1490 1490 1490 1490 1490 1490 1489 1489 1489 1488 1488 1487 1487 1487 1487 1487 1486 1486 1485 1485 1485 1485 1485 1486 1486 1486 1486 1487 1487 1487 1486 1486 1487 1487 1487 1487 1488 1488 1488 1488
1488 1488 1488 1488 1487 1487 1487 1487 1486 1486 1486 1485 1485 1484 1484 1483 1483 1484 1483 1483 1482 1482 1481 1481 1481 1481 1481 1482 1482 1482 1482 1483 1483 1482 1482 1482 1482 1482 1483 1483 1483 1484 1484
1485 1485 1485 1485 1484 1484 1483 1483 1483 1483 1483 1482 1482 1481 1480 1480 1480 1480 1480 1480 1479 1479 1478 1477 1476 1476 1477 1477 1477 1478 1478 1478 1478 1478 1478 1478 1478 1478 1478 1478 1479 1479 1479
1483 1482 1482 1481 1481 1481 1480 1479 1478 1479 1479 1478 1478 1477 1477 1476 1476 1476 1475 1475 1475 1475 1474 1473 1472 1472 1472 1472 1473 1473 1473 1473 1474 1474 1474 1474 1474 1474 1473 1473 1474 1474 1474
1480 1479 1479 1478 1478 1477 1476 1476 1475 1475 1474 1473 1473 1473 1472 1472 1471 1471 1471 1471 1470 1470 1469 1469 1469 1468 1468 1468 1469 1469 1469 1469 1469 1469 1469 1469 1469 1469 1469 1469 1469 1469 1469
1476 1476 1475 1475 1474 1474 1473 1473 1472 1471 1471 1470 1469 1469 1469 1468 1467 1467 1467 1466 1465 1465 1465 1465 1465 1464 1464 1465 1465 1465 1464 1464 1464 1465 1464 1464 1465 1464 1464 1464 1464 1464 1465
1473 1473 1472 1471 1471 1470 1470 1469 1469 1468 1467 1466 1465 1465 1464 1463 1462 1462 1462 1461 1461 1461 1461 1461 1460 1460 1460 1460 1460 1460 1460 1460 1460 1460 1460 1460 1460 1460 1459 1460 1460 1460 1460
1471 1470 1469 1468 1468 1467 1466 1465 1465 1464 1463 1462 1461 1461 1460 1459 1458 1458 1457 1457 1456 1456 1456 1456 1456 1456 1455 1455 1455 1455 1455 1455 1455 1455 1455 1455 1455 1455 1455 1455 1455 1455 1455
1468 1467 1466 1465 1464 1464 1463 1462 1461 1460 1459 1458 1457 1457 1456 1455 1454 1453 1453 1453 1452 1452 1452 1451 1451 1450 1450 1450 1450 1450 1450 1450 1450 1450 1450 1450 1450 1449 1449 1450 1450 1450 1449
1465 1464 1463 1462 1461 1460 1459 1458 1457 1456 1455 1455 1453 1453 1452 1451 1450 1449 1449 1448 1447 1447 1446 1446 1445 1445 1445 1445 1444 1444 1444 1445 1445 1445 1445 1445 1445 1445 1445 1445 1445 1444 1444
1462 1461 1460 1459 1458 1456 1455 1455 1454 1453 1452 1451 1449 1449 1448 1447 1446 1445 1444 1443 1442 1442 1441 1441 1440 1440 1439 1439 1439 1439 1439 1439 1440 1440 1440 1440 1440 1440 1440 1440 1440 1439 1439
1459 1458 1457 1455 1454 1453 1452 1451 1450 1449 1448 1447 1446 1445 1444 1443 1442 1441 1440 1439 1438 1437 1436 1436 1435 1435 1434 1434 1434 1434 1434 1435 1434 1434 1435 1434 1434 1434 1434 1434 1434 1435 1434
1456 1455 1454 1452 1451 1450 1449 1447 1446 1445 1444 1443 1441 1440 1439 1438 1437 1436 1435 1434 1433 1432 1431 1431 1430 1430 1429 1429 1429 1429 1429 1429 1429 1429 1429 1429 1429 1429 1429 1429 1429 1430 1430